| time (UTC) | temp F | wind direction | speed knots | gust knots | rain 1hr in | rain 24hr in | rain mn in | humidity % | barometer mb |
| 20260509150008 | 63 | 205 | 0.9 | 7.0 | 0.00 | 0.00 | 0.00 | 66 | 1002.5 |
| 20260509144505 | 62 | 233 | 3.5 | 9.6 | 0.00 | 0.00 | 0.00 | 68 | 1002.6 |
| 20260509143002 | 62 | 244 | 2.6 | 7.0 | 0.00 | 0.00 | 0.00 | 69 | 1002.6 |
| 20260509141558 | 60 | 260 | 1.7 | 8.7 | 0.00 | 0.00 | 0.00 | 72 | 1002.5 |
| 20260509140103 | 59 | 226 | 3.5 | 9.6 | 0.00 | 0.00 | 0.00 | 73 | 1002.5 |
| 20260509134552 | 59 | 215 | 0.9 | 4.3 | 0.00 | 0.00 | 0.00 | 76 | 1002.2 |
| 20260509133045 | 58 | 215 | 1.7 | 6.1 | 0.00 | 0.00 | 0.00 | 77 | 1002.4 |
| 20260509131546 | 57 | 226 | 1.7 | 7.8 | 0.00 | 0.00 | 0.00 | 78 | 1002.7 |
| 20260509130042 | 57 | 230 | 1.7 | 5.2 | 0.00 | 0.00 | 0.00 | 79 | 1002.6 |
| 20260509124538 | 56 | 212 | 2.6 | 8.7 | 0.00 | 0.00 | 0.00 | 81 | 1002.4 |
| 20260509123035 | 55 | 239 | 1.7 | 5.2 | 0.00 | 0.00 | 0.00 | 83 | 1002.6 |
| 20260509121537 | 54 | 238 | 0.9 | 5.2 | 0.00 | 0.00 | 0.00 | 83 | 1002.6 |
| 20260509120038 | 54 | 228 | 0.0 | 7.0 | 0.00 | 0.00 | 0.00 | 83 | 1002.5 |
| 20260509114533 | 54 | 223 | 0.0 | 2.6 | 0.00 | 0.00 | 0.00 | 84 | 1002.4 |
| 20260509113031 | 54 | 218 | 0.0 | 2.6 | 0.00 | 0.00 | 0.00 | 83 | 1002.2 |
| 20260509111530 | 54 | 226 | 0.0 | 2.6 | 0.00 | 0.00 | 0.00 | 83 | 1002.2 |
| 20260509110027 | 54 | 247 | 0.0 | 1.7 | 0.00 | 0.00 | 0.00 | 83 | 1002.0 |
| 20260509104526 | 54 | 217 | 0.0 | 1.7 | 0.00 | 0.00 | 0.00 | 83 | 1001.9 |
| 20260509103025 | 54 | 206 | 0.0 | 2.6 | 0.00 | 0.00 | 0.00 | 82 | 1001.9 |
| 20260509101528 | 54 | 212 | 0.0 | 0.9 | 0.00 | 0.00 | 0.00 | 83 | 1001.9 |
| 20260509100023 | 54 | 213 | 0.0 | 0.9 | 0.00 | 0.00 | 0.00 | 84 | 1002.1 |
| 20260509094527 | 53 | 231 | 0.0 | 1.7 | 0.00 | 0.00 | 0.00 | 84 | 1002.4 |
| 20260509093020 | 53 | 240 | 0.0 | 4.3 | 0.00 | 0.00 | 0.00 | 85 | 1002.7 |
| 20260509091519 | 53 | 209 | 0.0 | 0.9 | 0.00 | 0.00 | 0.00 | 85 | 1002.6 |
| 20260509090018 | 53 | 209 | 0.0 | 0.9 | 0.00 | 0.00 | 0.00 | 84 | 1002.5 |
| 20260509084516 | 53 | 209 | 0.0 | 3.5 | 0.00 | 0.00 | 0.00 | 84 | 1002.9 |
| 20260509083015 | 53 | 239 | 0.0 | 2.6 | 0.00 | 0.00 | 0.00 | 84 | 1002.8 |
| 20260509081516 | 53 | 218 | 0.0 | 0.0 | 0.00 | 0.00 | 0.00 | 83 | 1002.8 |
| 20260509080014 | 54 | 219 | 0.0 | 0.9 | 0.00 | 0.00 | 0.00 | 82 | 1002.8 |
| 20260509074511 | 54 | 215 | 0.0 | 0.9 | 0.00 | 0.00 | 0.00 | 82 | 1002.8 |
| 20260509073020 | 54 | 215 | 0.0 | 2.6 | 0.00 | 0.00 | 0.00 | 81 | 1003.1 |
| 20260509071507 | 54 | 219 | 0.0 | 0.9 | 0.00 | 0.00 | 0.00 | 80 | 1003.4 |
| 20260509070004 | 55 | 246 | 0.0 | 2.6 | 0.00 | 0.00 | 0.00 | 80 | 1003.6 |
| 20260509064502 | 55 | 211 | 0.0 | 0.9 | 0.00 | 0.00 | 0.00 | 80 | 1003.7 |
| 20260509063103 | 55 | 211 | 0.0 | 0.9 | 0.00 | 0.00 | 0.00 | 80 | 1003.9 |
| 20260509061602 | 56 | 207 | 0.0 | 0.9 | 0.00 | 0.00 | 0.00 | 80 | 1003.9 |
| 20260509060104 | 56 | 207 | 0.0 | 1.7 | 0.00 | 0.00 | 0.00 | 79 | 1004.2 |
| 20260509054611 | 56 | 234 | 0.0 | 2.6 | 0.00 | 0.00 | 0.00 | 78 | 1004.3 |
| 20260509053055 | 56 | 221 | 0.0 | 2.6 | 0.00 | 0.00 | 0.00 | 77 | 1004.3 |
| 20260509051551 | 57 | 207 | 0.0 | 2.6 | 0.00 | 0.00 | 0.00 | 76 | 1004.2 |
| 20260509050053 | 57 | 249 | 0.0 | 3.5 | 0.00 | 0.00 | 0.00 | 74 | 1004.3 |
| 20260509044547 | 57 | 198 | 0.0 | 1.7 | 0.00 | 0.00 | 0.00 | 73 | 1004.1 |
| 20260509043049 | 57 | 199 | 0.0 | 0.9 | 0.00 | 0.00 | 0.00 | 73 | 1004.5 |
| 20260509041546 | 57 | 167 | 0.0 | 0.9 | 0.00 | 0.00 | 0.00 | 72 | 1004.3 |
| 20260509040104 | 56 | 143 | 0.0 | 0.9 | 0.00 | 0.00 | 0.00 | 72 | 1004.3 |
| 20260509034548 | 55 | 128 | 0.0 | 0.9 | 0.00 | 0.00 | 0.00 | 72 | 1004.6 |
| 20260509033042 | 55 | 118 | 0.0 | 0.9 | 0.00 | 0.00 | 0.00 | 71 | 1004.5 |
| 20260509031541 | 54 | 118 | 0.0 | 0.9 | 0.00 | 0.00 | 0.00 | 71 | 1004.6 |
| 20260509030045 | 54 | 118 | 0.0 | 0.0 | 0.00 | 0.00 | 0.00 | 69 | 1004.6 |
| 20260509024539 | 54 | 118 | 0.0 | 0.0 | 0.00 | 0.00 | 0.00 | 69 | 1004.7 |
| 20260509023043 | 54 | 118 | 0.0 | 1.7 | 0.00 | 0.00 | 0.00 | 68 | 1004.9 |
| 20260509021544 | 55 | 118 | 0.0 | 0.9 | 0.00 | 0.00 | 0.00 | 67 | 1004.9 |
| 20260509020041 | 55 | 118 | 0.0 | 1.7 | 0.00 | 0.00 | 0.00 | 66 | 1005.0 |
| 20260509014537 | 55 | 118 | 0.0 | 2.6 | 0.00 | 0.00 | 0.00 | 65 | 1004.9 |
| 20260509013041 | 55 | 118 | 0.0 | 1.7 | 0.00 | 0.00 | 0.00 | 64 | 1004.9 |
| 20260509011550 | 56 | 117 | 0.0 | 2.6 | 0.00 | 0.00 | 0.00 | 62 | 1004.8 |
| 20260509010040 | 56 | 112 | 0.0 | 2.6 | 0.00 | 0.00 | 0.00 | 61 | 1004.8 |
| 20260509004543 | 56 | 107 | 0.9 | 3.5 | 0.00 | 0.00 | 0.00 | 60 | 1004.8 |
| 20260509003036 | 57 | 107 | 0.0 | 6.1 | 0.00 | 0.00 | 0.00 | 59 | 1004.9 |
| 20260509001534 | 57 | 92 | 0.9 | 5.2 | 0.00 | 0.00 | 0.00 | 58 | 1005.1 |
| 20260509000033 | 58 | 97 | 0.9 | 7.0 | 0.00 | 0.00 | 0.00 | 59 | 1005.0 |
| 20260508234532 | 58 | 114 | 0.0 | 6.1 | 0.00 | 0.00 | 0.00 | 58 | 1005.1 |
| 20260508233032 | 59 | 117 | 1.7 | 9.6 | 0.00 | 0.00 | 0.00 | 58 | 1005.2 |
| 20260508231529 | 59 | 122 | 1.7 | 6.1 | 0.00 | 0.00 | 0.00 | 55 | 1005.3 |
| 20260508230029 | 59 | 119 | 1.7 | 7.0 | 0.00 | 0.00 | 0.00 | 55 | 1005.4 |
| 20260508224528 | 59 | 120 | 0.9 | 7.8 | 0.00 | 0.01 | 0.00 | 58 | 1005.5 |
| 20260508223037 | 58 | 112 | 0.9 | 7.8 | 0.00 | 0.01 | 0.00 | 57 | 1005.5 |
| 20260508221523 | 58 | 116 | 2.6 | 7.0 | 0.00 | 0.01 | 0.00 | 57 | 1005.6 |
| 20260508220024 | 59 | 120 | 0.9 | 7.0 | 0.00 | 0.07 | 0.00 | 57 | 1005.7 |
| 20260508214520 | 59 | 109 | 0.9 | 6.1 | 0.00 | 0.07 | 0.00 | 55 | 1005.8 |
| 20260508213025 | 60 | 110 | 1.7 | 7.0 | 0.00 | 0.07 | 0.00 | 59 | 1005.8 |
| 20260508211520 | 60 | 94 | 2.6 | 7.0 | 0.00 | 0.07 | 0.00 | 57 | 1005.9 |
| 20260508210020 | 60 | 120 | 2.6 | 7.0 | 0.00 | 0.07 | 0.00 | 54 | 1005.9 |
| 20260508204522 | 61 | 124 | 3.5 | 9.6 | 0.00 | 0.07 | 0.00 | 52 | 1006.0 |
| 20260508203015 | 61 | 103 | 0.9 | 7.8 | 0.00 | 0.07 | 0.00 | 50 | 1006.2 |
| 20260508201513 | 61 | 111 | 1.7 | 9.6 | 0.00 | 0.07 | 0.00 | 48 | 1006.4 |
| 20260508200012 | 61 | 117 | 3.5 | 10.4 | 0.00 | 0.07 | 0.00 | 46 | 1006.8 |
| 20260508194508 | 61 | 120 | 3.5 | 12.2 | 0.00 | 0.07 | 0.00 | 45 | 1007.0 |
| 20260508193007 | 61 | 133 | 4.3 | 9.6 | 0.00 | 0.07 | 0.00 | 46 | 1007.1 |
| 20260508191508 | 61 | 104 | 5.2 | 10.4 | 0.00 | 0.07 | 0.00 | 41 | 1007.2 |
| 20260508190004 | 61 | 117 | 3.5 | 8.7 | 0.00 | 0.07 | 0.00 | 42 | 1007.4 |
| 20260508184502 | 62 | 106 | 1.7 | 8.7 | 0.00 | 0.07 | 0.00 | 40 | 1007.6 |
| 20260508183100 | 62 | 125 | 0.9 | 13.0 | 0.00 | 0.07 | 0.00 | 41 | 1007.8 |
| 20260508181603 | 62 | 136 | 0.9 | 8.7 | 0.00 | 0.07 | 0.00 | 42 | 1007.9 |
| 20260508180059 | 62 | 106 | 4.3 | 11.3 | 0.00 | 0.07 | 0.00 | 40 | 1008.0 |
| 20260508174559 | 63 | 88 | 4.3 | 9.6 | 0.00 | 0.07 | 0.00 | 41 | 1008.2 |
| 20260508173053 | 62 | 90 | 3.5 | 7.0 | 0.00 | 0.07 | 0.00 | 43 | 1008.6 |
| 20260508171551 | 62 | 111 | 2.6 | 7.8 | 0.00 | 0.07 | 0.00 | 43 | 1008.7 |
| 20260508170050 | 62 | 113 | 1.7 | 5.2 | 0.00 | 0.07 | 0.00 | 46 | 1009.0 |
| 20260508164547 | 62 | 93 | 3.5 | 9.6 | 0.00 | 0.07 | 0.00 | 46 | 1009.2 |
| 20260508163048 | 62 | 96 | 1.7 | 7.0 | 0.00 | 0.07 | 0.00 | 47 | 1009.5 |
| 20260508161543 | 62 | 115 | 0.0 | 6.1 | 0.00 | 0.07 | 0.00 | 49 | 1009.6 |
| 20260508160059 | 61 | 121 | 0.0 | 2.6 | 0.00 | 0.07 | 0.00 | 47 | 1009.7 |
| 20260508154536 | 60 | 111 | 0.9 | 5.2 | 0.00 | 0.07 | 0.00 | 48 | 1009.9 |
| 20260508153042 | 59 | 109 | 0.0 | 1.7 | 0.00 | 0.07 | 0.00 | 50 | 1010.0 |
| 20260508151530 | 58 | 113 | 0.0 | 1.7 | 0.00 | 0.07 | 0.00 | 57 | 1010.0 |